Location: Elmsmere
(40.9284°N, 73.8207°W)
Time: 06:08:48
(UTC+00:00)

Meteor 2-21 Rocket - Pass Details

Date: 29 October 2020
Orbit: 935 x 968 km, 82.5° (Epoch: 27 November)

Event Time Altitude Azimuth Distance (km) Brightness Sun altitude
Rises 22:27:39 0° 352° (N) 3,651 7.5 -6.9°
Reaches altitude 10° 22:30:10 10° 352° (N) 2,696 6.8 -7.4°
Maximum altitude 22:36:21 89° 81° (E) 957 4.5 -8.5°
Drops below altitude 10° 22:42:26 10° 174° (S) 2,655 6.8 -9.7°
Sets 22:44:54 0° 174° (S) 3,591 7.5 -10.1°
